Darstellungsparameter: Aktuell verwendete Einstellungen:
Skalierung der Graphiken ... ?
xyx+y,   Skalierungsfaktor:      Skalierung: Modus: x, Faktor: 1
Darstellungszeitraum ... ?
Vom - - bis: - -   Zeitraum: 28.10.2008 - 10.11.2008
Min/Max/Avg-Anzeige ... ?
Zeige MMA aktuell
Zeige MMA Monat
Zeige MMA alles
Zeige --A aktuell
Zeige --A Monat
Zeige --A alles
Keine MMA-Anzeige
MMA:
Average (ber die Originaldaten)
MMA-Basis: 17.04.2019 - 19.05.2019
Quicknavigation für Darstellung... ?
Tage:      1T, 2T, 3T, 5T -1T -2T -3T -5T +1T +2T +3T +5T
Wochen: 1W, 2W, 3W -1W -2W -3W +1W +2W +3W
Monate: 1M, 3M, 6M -1M -3M -6M +1M +3M +6M
Jahre:    1J, 3J, 5J, 10J -1J -3J -5J -10J +1J +3J +5J +10J
Nutze für die Darstellung ... ?
Originaldaten oder Mittelwerte auf ...
Stundenbasis Tagesbasis Wochenbasis
Monatsbasis Jahresbasis      Datenbasis: Original-Daten
Darstellen als:
Statistik (Auto) Statistik J:M      Darstellung:
Zur Graphik,    zurück zur Übersicht aller Sensoren.
 
Tabellarische Datenbersicht: ?
 
Sensor: Nr:Datum:Temp:Abs-Feuchte:Windchill:Wind:
Aussen-T/F 1 28-10-2008 00:21:08 5.8 C 6.45 g/m*3 5.8 C 0 km/h
2 28-10-2008 00:46:08 6.1 C 6.58 g/m*3 6.1 C 0 km/h
3 28-10-2008 01:11:08 6.1 C 6.65 g/m*3 6.1 C 0 km/h
4 28-10-2008 01:36:08 5.8 C 6.52 g/m*3 5.8 C 0 km/h
5 28-10-2008 02:01:08 6 C 6.6 g/m*3 6 C 0 km/h
6 28-10-2008 02:26:08 6.3 C 6.81 g/m*3 6.3 C 0 km/h
7 28-10-2008 02:51:08 6.4 C 6.78 g/m*3 6.4 C 0 km/h
8 28-10-2008 03:16:08 6.4 C 6.78 g/m*3 6.4 C 0 km/h
9 28-10-2008 03:41:08 6.6 C 6.87 g/m*3 6.6 C 0 km/h
10 28-10-2008 04:06:08 6.5 C 6.82 g/m*3 6.5 C 0 km/h
11 28-10-2008 04:31:08 6.5 C 6.82 g/m*3 6.5 C 0 km/h
12 28-10-2008 04:56:09 6.5 C 6.9 g/m*3 6.5 C 0 km/h
13 28-10-2008 05:21:09 6.5 C 6.9 g/m*3 6.5 C 0 km/h
14 28-10-2008 05:46:09 6.4 C 6.93 g/m*3 6.4 C 0 km/h
15 28-10-2008 06:11:09 6.3 C 6.88 g/m*3 6.3 C 0 km/h
16 28-10-2008 06:36:09 6.5 C 6.97 g/m*3 6.5 C 0 km/h
17 28-10-2008 07:01:09 6.2 C 6.84 g/m*3 6.2 C 0 km/h
18 28-10-2008 07:26:09 6 C 6.75 g/m*3 6 C 0 km/h
19 28-10-2008 07:51:09 6 C 6.75 g/m*3 6 C 0 km/h
20 28-10-2008 08:16:09 6.2 C 6.91 g/m*3 6.2 C 0 km/h
21 28-10-2008 08:41:09 6.6 C 7.1 g/m*3 6.6 C 0 km/h
22 28-10-2008 09:06:09 7 C 7.21 g/m*3 7 C 0 km/h
23 28-10-2008 09:31:09 7.3 C 7.19 g/m*3 7.3 C 0 km/h
24 28-10-2008 09:56:09 7.8 C 6.94 g/m*3 7.8 C 0 km/h
25 28-10-2008 10:21:09 7.9 C 6.65 g/m*3 7.9 C 0 km/h
Sensor: Nr:Datum:Temp:Abs-Feuchte:Windchill:Wind:
Aussen-T/F 26 28-10-2008 10:46:09 8.5 C 6.92 g/m*3 8.5 C 0 km/h
27 28-10-2008 11:11:09 9.2 C 6.88 g/m*3 9.2 C 0 km/h
28 28-10-2008 11:36:09 10.1 C 6.71 g/m*3 10.1 C 0 km/h
29 28-10-2008 12:01:09 10.5 C 6.3 g/m*3 10.5 C 0 km/h
30 28-10-2008 12:26:09 10.5 C 5.82 g/m*3 10.5 C 0 km/h
31 28-10-2008 12:51:09 10.3 C 4.98 g/m*3 10.3 C 0 km/h
32 28-10-2008 13:16:10 10.6 C 5.37 g/m*3 10.6 C 0 km/h
33 28-10-2008 13:41:10 10.5 C 5.43 g/m*3 10.5 C 0 km/h
34 28-10-2008 14:06:10 10.1 C 5.3 g/m*3 10.1 C 0 km/h
35 28-10-2008 14:31:10 10.2 C 5.33 g/m*3 10.2 C 0 km/h
36 28-10-2008 14:56:10 10.4 C 5.4 g/m*3 10.4 C 0 km/h
37 28-10-2008 15:21:10 10.2 C 5.23 g/m*3 10.2 C 0 km/h
38 28-10-2008 15:46:10 9.8 C 5.38 g/m*3 9.8 C 0 km/h
39 28-10-2008 16:11:10 9 C 5.73 g/m*3 9 C 0 km/h
40 28-10-2008 16:36:10 8.4 C 6.19 g/m*3 8.4 C 0 km/h
41 28-10-2008 17:01:10 7.8 C 6.12 g/m*3 7.8 C 0 km/h
42 28-10-2008 17:26:10 7 C 5.97 g/m*3 7 C 0 km/h
43 28-10-2008 17:51:10 6.5 C 5.92 g/m*3 6.5 C 0 km/h
44 28-10-2008 18:16:10 6.2 C 5.96 g/m*3 6.2 C 0 km/h
45 28-10-2008 18:41:10 5.5 C 5.76 g/m*3 5.5 C 0 km/h
46 28-10-2008 19:06:10 5.4 C 5.72 g/m*3 5.4 C 0 km/h
47 28-10-2008 19:31:10 5.2 C 5.78 g/m*3 5.2 C 0 km/h
48 28-10-2008 19:56:10 5 C 5.71 g/m*3 5 C 0 km/h
49 28-10-2008 20:21:10 4.9 C 5.81 g/m*3 4.9 C 0 km/h
50 28-10-2008 20:46:10 4.7 C 5.73 g/m*3 4.7 C 0 km/h
Sensor: Nr:Datum:Temp:Abs-Feuchte:Windchill:Wind:
Aussen-T/F 51 28-10-2008 21:11:10 4.4 C 5.62 g/m*3 4.4 C 0 km/h
52 28-10-2008 21:36:10 4.2 C 5.61 g/m*3 4.2 C 0 km/h
53 28-10-2008 22:01:11 3.9 C 5.49 g/m*3 3.9 C 0 km/h
54 28-10-2008 22:26:11 3.8 C 5.58 g/m*3 3.8 C 0 km/h
55 28-10-2008 22:51:11 3.6 C 5.51 g/m*3 3.6 C 0 km/h
56 28-10-2008 23:16:11 3.4 C 5.44 g/m*3 3.4 C 0 km/h
57 28-10-2008 23:41:11 3.2 C 5.36 g/m*3 3.2 C 0 km/h
58 29-10-2008 00:06:11 3.2 C 5.42 g/m*3 3.2 C 0 km/h
59 29-10-2008 00:31:11 3.1 C 5.39 g/m*3 3.1 C 0 km/h
60 29-10-2008 00:56:11 2.8 C 5.34 g/m*3 2.8 C 0 km/h
61 29-10-2008 01:21:11 2.8 C 5.4 g/m*3 2.8 C 0 km/h
62 29-10-2008 01:46:11 2.9 C 5.43 g/m*3 2.9 C 0 km/h
63 29-10-2008 02:11:11 3 C 5.47 g/m*3 3 C 0 km/h
64 29-10-2008 02:36:11 2.9 C 5.49 g/m*3 2.9 C 0 km/h
65 29-10-2008 03:01:11 3.1 C 5.51 g/m*3 3.1 C 0 km/h
66 29-10-2008 03:26:11 3.4 C 5.68 g/m*3 3.4 C 0 km/h
67 29-10-2008 03:51:11 3.6 C 5.76 g/m*3 3.6 C 0 km/h
68 29-10-2008 04:16:11 3.6 C 5.69 g/m*3 3.6 C 0 km/h
69 29-10-2008 04:41:11 3.4 C 5.62 g/m*3 3.4 C 0 km/h
70 29-10-2008 05:06:11 3.5 C 5.66 g/m*3 3.5 C 0 km/h
71 29-10-2008 05:31:11 3.7 C 5.73 g/m*3 3.7 C 0 km/h
72 29-10-2008 05:56:11 3.7 C 5.73 g/m*3 3.7 C 0 km/h
73 29-10-2008 06:21:11 3.7 C 5.73 g/m*3 3.7 C 0 km/h
74 29-10-2008 06:46:12 3.7 C 5.67 g/m*3 3.7 C 0 km/h
75 29-10-2008 07:11:12 3.7 C 5.67 g/m*3 3.7 C 0 km/h
Sensor: Nr:Datum:Temp:Abs-Feuchte:Windchill:Wind:
Aussen-T/F 76 29-10-2008 07:36:12 3.6 C 5.63 g/m*3 3.6 C 0 km/h
77 29-10-2008 08:01:12 3.6 C 5.63 g/m*3 3.6 C 0 km/h
78 29-10-2008 08:26:12 3.9 C 5.75 g/m*3 3.9 C 0 km/h
79 29-10-2008 08:51:12 3.9 C 5.68 g/m*3 3.9 C 0 km/h
80 29-10-2008 09:16:12 4.4 C 5.75 g/m*3 4.4 C 0 km/h
81 29-10-2008 09:41:12 4.6 C 5.69 g/m*3 4.6 C 0 km/h
82 29-10-2008 10:06:12 5 C 5.57 g/m*3 5 C 0 km/h
83 29-10-2008 10:31:12 5.6 C 5.66 g/m*3 5.6 C 0 km/h
84 29-10-2008 10:56:12 5.6 C 5.59 g/m*3 5.6 C 0 km/h
85 29-10-2008 11:21:12 6.5 C 5.77 g/m*3 6.5 C 0 km/h
86 29-10-2008 11:46:12 7.2 C 5.65 g/m*3 7.2 C 0 km/h
87 29-10-2008 12:11:12 7.1 C 5.54 g/m*3 7.1 C 0 km/h
88 29-10-2008 12:36:12 7.5 C 5.76 g/m*3 7.5 C 0 km/h
89 29-10-2008 13:01:12 8 C 5.37 g/m*3 8 C 0 km/h
90 29-10-2008 13:26:12 8.4 C 5.51 g/m*3 8.4 C 0 km/h
91 29-10-2008 13:51:12 9.2 C 5.63 g/m*3 9.2 C 0 km/h
92 29-10-2008 14:16:12 9.1 C 5.41 g/m*3 9.1 C 0 km/h
93 29-10-2008 14:41:12 10.2 C 5.42 g/m*3 10.2 C 0 km/h
94 29-10-2008 15:06:13 10.7 C 5.11 g/m*3 10.7 C 0 km/h
95 29-10-2008 15:31:13 9.8 C 5.1 g/m*3 9.8 C 0 km/h
96 29-10-2008 15:56:13 9.4 C 5.34 g/m*3 9.4 C 0 km/h
97 29-10-2008 16:21:13 8.4 C 5.34 g/m*3 8.4 C 0 km/h
98 29-10-2008 16:46:13 7.9 C 5.5 g/m*3 7.9 C 0 km/h
99 29-10-2008 17:11:13 7.1 C 5.38 g/m*3 7.1 C 0 km/h
100 29-10-2008 17:36:13 6.7 C 5.47 g/m*3 6.7 C 0 km/h
Sensor: Nr:Datum:Temp:Abs-Feuchte:Windchill:Wind:
Aussen-T/F 101 29-10-2008 18:01:13 6.4 C 5.59 g/m*3 6.4 C 0 km/h
102 29-10-2008 18:26:13 6.2 C 5.52 g/m*3 6.2 C 0 km/h
103 29-10-2008 18:51:13 6 C 5.52 g/m*3 6 C 0 km/h
104 29-10-2008 19:16:13 5.9 C 5.62 g/m*3 5.9 C 0 km/h
105 29-10-2008 19:41:13 5.9 C 5.7 g/m*3 5.9 C 0 km/h
106 29-10-2008 20:06:13 5.8 C 5.66 g/m*3 5.8 C 0 km/h
107 29-10-2008 20:31:13 5.4 C 5.58 g/m*3 5.4 C 0 km/h
108 29-10-2008 20:56:13 5.1 C 5.54 g/m*3 5.1 C 0 km/h
109 29-10-2008 21:21:13 5.3 C 5.54 g/m*3 5.3 C 0 km/h
110 29-10-2008 21:46:13 5.1 C 5.47 g/m*3 5.1 C 0 km/h
111 29-10-2008 22:11:13 5.2 C 5.51 g/m*3 5.2 C 0 km/h
112 29-10-2008 22:36:13 5.2 C 5.58 g/m*3 5.2 C 0 km/h
113 29-10-2008 23:01:13 5.2 C 5.65 g/m*3 5.2 C 0 km/h
114 29-10-2008 23:26:13 5.2 C 5.65 g/m*3 5.2 C 0 km/h
115 29-10-2008 23:51:14 5 C 5.64 g/m*3 5 C 0 km/h
116 30-10-2008 00:16:14 5 C 5.71 g/m*3 5 C 0 km/h
117 30-10-2008 00:41:14 4.9 C 5.74 g/m*3 4.9 C 0 km/h
118 30-10-2008 01:06:14 4.7 C 5.73 g/m*3 4.7 C 0 km/h
119 30-10-2008 01:31:14 4.8 C 5.83 g/m*3 4.8 C 0 km/h
120 30-10-2008 01:56:14 4.8 C 5.83 g/m*3 4.8 C 0 km/h
121 30-10-2008 02:21:14 5 C 5.84 g/m*3 5 C 0 km/h
122 30-10-2008 02:46:14 4.8 C 5.83 g/m*3 4.8 C 0 km/h
123 30-10-2008 03:11:14 4.8 C 5.9 g/m*3 4.8 C 0 km/h
124 30-10-2008 03:36:14 4.7 C 5.93 g/m*3 4.7 C 0 km/h
125 30-10-2008 04:01:14 4.7 C 6 g/m*3 4.7 C 0 km/h
Sensor: Nr:Datum:Temp:Abs-Feuchte:Windchill:Wind:
Aussen-T/F 126 30-10-2008 04:26:14 4.5 C 5.98 g/m*3 4.5 C 0 km/h
127 30-10-2008 04:51:14 4.5 C 5.98 g/m*3 4.5 C 0 km/h
128 30-10-2008 05:16:14 4.5 C 6.05 g/m*3 4.5 C 0 km/h
129 30-10-2008 05:41:14 4.5 C 6.05 g/m*3 4.5 C 0 km/h
130 30-10-2008 06:06:14 4.2 C 5.93 g/m*3 4.2 C 0 km/h
131 30-10-2008 06:31:14 4.2 C 5.93 g/m*3 4.2 C 0 km/h
132 30-10-2008 06:56:14 4.1 C 5.89 g/m*3 4.1 C 0 km/h
133 30-10-2008 07:21:14 3.9 C 5.87 g/m*3 3.9 C 0 km/h
134 30-10-2008 07:46:14 3.9 C 5.94 g/m*3 3.9 C 0 km/h
135 30-10-2008 08:11:15 4 C 5.98 g/m*3 4 C 0 km/h
136 30-10-2008 08:36:15 4.2 C 6.06 g/m*3 4.2 C 0 km/h
137 30-10-2008 09:01:15 4.6 C 6.22 g/m*3 4.6 C 0 km/h
138 30-10-2008 09:26:15 4.8 C 6.3 g/m*3 4.8 C 0 km/h
139 30-10-2008 09:51:15 4.8 C 6.24 g/m*3 4.8 C 0 km/h
140 30-10-2008 10:16:15 4.7 C 6 g/m*3 4.7 C 0 km/h
141 30-10-2008 10:41:15 4.7 C 5.93 g/m*3 4.7 C 0 km/h
142 30-10-2008 11:06:15 5.1 C 6.02 g/m*3 5.1 C 0 km/h
143 30-10-2008 11:31:15 5.3 C 6.1 g/m*3 5.3 C 0 km/h
144 30-10-2008 11:56:15 5.8 C 6.23 g/m*3 5.8 C 0 km/h
145 30-10-2008 12:21:15 5.7 C 6.05 g/m*3 5.7 C 0 km/h
146 30-10-2008 12:46:15 5.6 C 6.08 g/m*3 5.6 C 0 km/h
147 30-10-2008 13:11:15 5.7 C 6.12 g/m*3 5.7 C 0 km/h
148 30-10-2008 13:36:15 5.3 C 5.82 g/m*3 5.3 C 0 km/h
149 30-10-2008 14:01:15 5.7 C 6.05 g/m*3 5.7 C 0 km/h
150 30-10-2008 14:26:15 5.6 C 6.08 g/m*3 5.6 C 0 km/h
Sensor: Nr:Datum:Temp:Abs-Feuchte:Windchill:Wind:
Aussen-T/F 151 30-10-2008 14:51:15 5.4 C 6 g/m*3 5.4 C 0 km/h
152 30-10-2008 15:16:15 5.8 C 6.16 g/m*3 5.8 C 0 km/h
153 30-10-2008 15:41:15 5.7 C 6.05 g/m*3 5.7 C 0 km/h
154 30-10-2008 16:06:15 5.7 C 6.12 g/m*3 5.7 C 0 km/h
155 30-10-2008 16:31:15 5.7 C 6.19 g/m*3 5.7 C 0 km/h
156 30-10-2008 16:56:16 5.4 C 6.07 g/m*3 5.4 C 0 km/h
157 30-10-2008 17:21:16 4.8 C 5.9 g/m*3 4.8 C 0 km/h
158 30-10-2008 17:46:16 4.7 C 5.86 g/m*3 4.7 C 0 km/h
159 30-10-2008 18:11:16 4.8 C 5.97 g/m*3 4.8 C 0 km/h
160 30-10-2008 18:36:16 4.6 C 5.89 g/m*3 4.6 C 0 km/h
161 30-10-2008 19:01:16 4.6 C 6.02 g/m*3 4.6 C 0 km/h
162 30-10-2008 19:26:16 4.6 C 6.02 g/m*3 4.6 C 0 km/h
163 30-10-2008 19:51:16 4.6 C 6.09 g/m*3 4.6 C 0 km/h
164 30-10-2008 20:16:16 4.4 C 6.01 g/m*3 4.4 C 0 km/h
165 30-10-2008 20:41:16 4.5 C 6.11 g/m*3 4.5 C 0 km/h
166 30-10-2008 21:06:16 4.4 C 6.07 g/m*3 4.4 C 0 km/h
167 30-10-2008 21:31:16 4.3 C 6.03 g/m*3 4.3 C 0 km/h
168 30-10-2008 21:56:16 4.3 C 6.03 g/m*3 4.3 C 0 km/h
169 30-10-2008 22:21:16 4.3 C 6.1 g/m*3 4.3 C 0 km/h
170 30-10-2008 22:46:16 4.3 C 6.1 g/m*3 4.3 C 0 km/h
171 30-10-2008 23:11:16 4.1 C 6.02 g/m*3 4.1 C 0 km/h
172 30-10-2008 23:36:16 3.9 C 5.94 g/m*3 3.9 C 0 km/h
173 31-10-2008 00:01:16 3.8 C 5.96 g/m*3 3.8 C 0 km/h
174 31-10-2008 00:26:16 3.7 C 5.92 g/m*3 3.7 C 0 km/h
175 31-10-2008 00:51:16 3.4 C 5.8 g/m*3 3.4 C 0 km/h
Sensor: Nr:Datum:Temp:Abs-Feuchte:Windchill:Wind:
Aussen-T/F 176 31-10-2008 01:16:16 3.2 C 5.72 g/m*3 3.2 C 0 km/h
177 31-10-2008 01:41:17 2.8 C 5.57 g/m*3 2.8 C 0 km/h
178 31-10-2008 02:06:17 2.7 C 5.54 g/m*3 2.7 C 0 km/h
179 31-10-2008 02:31:17 2.9 C 5.61 g/m*3 2.9 C 0 km/h
180 31-10-2008 02:56:17 3.2 C 5.72 g/m*3 3.2 C 0 km/h
181 31-10-2008 03:21:17 3.1 C 5.69 g/m*3 3.1 C 0 km/h
182 31-10-2008 03:46:17 3 C 5.65 g/m*3 3 C 0 km/h
183 31-10-2008 04:11:17 3.1 C 5.69 g/m*3 3.1 C 0 km/h
184 31-10-2008 04:36:17 3.2 C 5.72 g/m*3 3.2 C 0 km/h
185 31-10-2008 05:01:17 3.3 C 5.76 g/m*3 3.3 C 0 km/h
186 31-10-2008 05:26:17 3.6 C 5.88 g/m*3 3.6 C 0 km/h
187 31-10-2008 05:51:17 3.7 C 5.92 g/m*3 3.7 C 0 km/h
188 31-10-2008 06:16:17 3.8 C 5.96 g/m*3 3.8 C 0 km/h
189 31-10-2008 06:41:17 4 C 6.04 g/m*3 4 C 0 km/h
190 31-10-2008 07:06:17 4 C 6.04 g/m*3 4 C 0 km/h
191 31-10-2008 07:31:17 4 C 6.04 g/m*3 4 C 0 km/h
192 31-10-2008 07:56:17 4.1 C 6.08 g/m*3 4.1 C 0 km/h
193 31-10-2008 08:21:17 4.3 C 6.16 g/m*3 4.3 C 0 km/h
194 31-10-2008 08:46:17 4.5 C 6.24 g/m*3 4.5 C 0 km/h
195 31-10-2008 09:11:17 4.9 C 6.41 g/m*3 4.9 C 0 km/h
196 31-10-2008 09:36:17 5.4 C 6.63 g/m*3 5.4 C 0 km/h
197 31-10-2008 10:01:17 5.8 C 6.81 g/m*3 5.8 C 0 km/h
198 31-10-2008 10:26:18 6.3 C 6.74 g/m*3 6.3 C 0 km/h
199 31-10-2008 10:51:18 6.5 C 6.6 g/m*3 6.5 C 0 km/h
200 31-10-2008 11:16:18 7.1 C 6.55 g/m*3 7.1 C 0 km/h
Sensor: Nr:Datum:Temp:Abs-Feuchte:Windchill:Wind:
Aussen-T/F 201 31-10-2008 11:41:18 7 C 6.51 g/m*3 7 C 0 km/h
202 31-10-2008 12:06:18 7 C 6.66 g/m*3 7 C 0 km/h
203 31-10-2008 12:31:18 7.8 C 7.02 g/m*3 7.8 C 0 km/h
204 31-10-2008 12:56:18 8 C 6.7 g/m*3 8 C 0 km/h
205 31-10-2008 13:21:18 8 C 6.7 g/m*3 8 C 0 km/h
206 31-10-2008 13:46:18 8.8 C 6.7 g/m*3 8.8 C 0 km/h
207 31-10-2008 14:11:18 9.5 C 6.74 g/m*3 9.5 C 0 km/h
208 31-10-2008 14:36:18 10 C 6.77 g/m*3 10 C 0 km/h
209 31-10-2008 15:01:18 11.2 C 6.99 g/m*3 11.2 C 0 km/h
210 31-10-2008 15:26:18 11.1 C 6.35 g/m*3 11.1 C 0 km/h
211 31-10-2008 15:51:18 10.2 C 6.38 g/m*3 10.2 C 0 km/h
212 31-10-2008 16:16:18 9.6 C 6.5 g/m*3 9.6 C 0 km/h
213 31-10-2008 16:41:18 8.9 C 6.48 g/m*3 8.9 C 0 km/h
214 31-10-2008 17:06:18 8.4 C 6.53 g/m*3 8.4 C 0 km/h
215 31-10-2008 17:31:18 8.1 C 6.32 g/m*3 8.1 C 0 km/h
216 31-10-2008 17:56:18 7.9 C 6.32 g/m*3 7.9 C 0 km/h
217 31-10-2008 18:21:18 7.3 C 6.32 g/m*3 7.3 C 0 km/h
218 31-10-2008 18:46:19 6.8 C 6.42 g/m*3 6.8 C 0 km/h
219 31-10-2008 19:11:19 7 C 6.51 g/m*3 7 C 0 km/h
220 31-10-2008 19:36:19 6.8 C 6.5 g/m*3 6.8 C 0 km/h
221 31-10-2008 20:01:19 6.7 C 6.53 g/m*3 6.7 C 0 km/h
222 31-10-2008 20:26:19 6.5 C 6.52 g/m*3 6.5 C 0 km/h
223 31-10-2008 20:51:19 6.4 C 6.56 g/m*3 6.4 C 0 km/h
224 31-10-2008 21:16:19 6.2 C 6.47 g/m*3 6.2 C 0 km/h
225 31-10-2008 21:41:19 6.2 C 6.55 g/m*3 6.2 C 0 km/h
Sensor: Nr:Datum:Temp:Abs-Feuchte:Windchill:Wind:
Aussen-T/F 226 31-10-2008 22:06:19 6.2 C 6.55 g/m*3 6.2 C 0 km/h
227 31-10-2008 22:31:19 6.2 C 6.55 g/m*3 6.2 C 0 km/h
228 31-10-2008 22:56:19 6.3 C 6.66 g/m*3 6.3 C 0 km/h
229 31-10-2008 23:21:19 6.5 C 6.75 g/m*3 6.5 C 0 km/h
230 31-10-2008 23:46:19 6.5 C 6.67 g/m*3 6.5 C 0 km/h
231 01-11-2008 00:11:19 6.4 C 6.63 g/m*3 6.4 C 0 km/h
232 01-11-2008 00:36:19 6.3 C 6.66 g/m*3 6.3 C 0 km/h
233 01-11-2008 01:01:19 6.4 C 6.71 g/m*3 6.4 C 0 km/h
234 01-11-2008 01:26:19 6.4 C 6.78 g/m*3 6.4 C 0 km/h
235 01-11-2008 01:51:19 6.4 C 6.85 g/m*3 6.4 C 0 km/h
236 01-11-2008 02:16:19 6.3 C 6.81 g/m*3 6.3 C 0 km/h
237 01-11-2008 02:41:19 6.2 C 6.84 g/m*3 6.2 C 0 km/h
238 01-11-2008 03:06:19 6.2 C 6.91 g/m*3 6.2 C 0 km/h
239 01-11-2008 03:31:20 6 C 6.82 g/m*3 6 C 0 km/h
240 01-11-2008 03:56:20 5.9 C 6.85 g/m*3 5.9 C 0 km/h
241 01-11-2008 04:21:20 6 C 6.9 g/m*3 6 C 0 km/h
242 01-11-2008 04:46:20 5.9 C 6.85 g/m*3 5.9 C 0 km/h
243 01-11-2008 05:11:20 6 C 6.9 g/m*3 6 C 0 km/h
244 01-11-2008 05:36:20 6 C 6.9 g/m*3 6 C 0 km/h
245 01-11-2008 06:01:20 5.9 C 6.85 g/m*3 5.9 C 0 km/h
246 01-11-2008 06:26:20 5.9 C 6.85 g/m*3 5.9 C 0 km/h
247 01-11-2008 06:51:20 5.7 C 6.76 g/m*3 5.7 C 0 km/h
248 01-11-2008 07:16:20 5.5 C 6.67 g/m*3 5.5 C 0 km/h
249 01-11-2008 07:41:20 5.3 C 6.58 g/m*3 5.3 C 0 km/h
250 01-11-2008 08:06:20 5.6 C 6.72 g/m*3 5.6 C 0 km/h
Sensor: Nr:Datum:Temp:Abs-Feuchte:Windchill:Wind:
Aussen-T/F 251 01-11-2008 08:31:20 5.9 C 6.85 g/m*3 5.9 C 0 km/h
252 01-11-2008 08:56:20 6.5 C 7.12 g/m*3 6.5 C 0 km/h
253 01-11-2008 09:21:20 7.1 C 7.41 g/m*3 7.1 C 0 km/h
254 01-11-2008 09:46:20 7.4 C 7.55 g/m*3 7.4 C 0 km/h
255 01-11-2008 10:11:20 7.9 C 7.56 g/m*3 7.9 C 0 km/h
256 01-11-2008 10:36:20 8.2 C 7.2 g/m*3 8.2 C 0 km/h
257 01-11-2008 11:01:20 8.5 C 7.09 g/m*3 8.5 C 0 km/h
258 01-11-2008 11:26:20 8.7 C 7.01 g/m*3 8.7 C 0 km/h
259 01-11-2008 11:51:20 9.3 C 6.74 g/m*3 9.3 C 0 km/h
260 01-11-2008 12:16:21 9.6 C 6.78 g/m*3 9.6 C 0 km/h
261 01-11-2008 12:41:21 10 C 6.58 g/m*3 10 C 0 km/h
262 01-11-2008 13:06:21 10 C 6.58 g/m*3 10 C 0 km/h
263 01-11-2008 13:31:21 10.3 C 6.7 g/m*3 10.3 C 0 km/h
264 01-11-2008 13:56:21 10.3 C 6.8 g/m*3 10.3 C 0 km/h
265 01-11-2008 14:21:21 10.4 C 6.84 g/m*3 10.4 C 0 km/h
266 01-11-2008 14:46:21 10.5 C 6.89 g/m*3 10.5 C 0 km/h
267 01-11-2008 15:11:21 10.8 C 6.92 g/m*3 10.8 C 0 km/h
268 01-11-2008 15:36:21 10.5 C 7.18 g/m*3 10.5 C 0 km/h
269 01-11-2008 16:01:21 10.1 C 7.28 g/m*3 10.1 C 0 km/h
270 01-11-2008 16:26:21 9.8 C 7.52 g/m*3 9.8 C 0 km/h
271 01-11-2008 16:51:21 9.5 C 7.55 g/m*3 9.5 C 0 km/h
272 01-11-2008 17:16:21 9.4 C 7.6 g/m*3 9.4 C 0 km/h
273 01-11-2008 17:41:21 9.5 C 7.74 g/m*3 9.5 C 0 km/h
274 01-11-2008 18:06:21 9.4 C 7.69 g/m*3 9.4 C 0 km/h
275 01-11-2008 18:31:21 9.2 C 7.59 g/m*3 9.2 C 0 km/h
Sensor: Nr:Datum:Temp:Abs-Feuchte:Windchill:Wind:
Aussen-T/F 276 01-11-2008 18:56:21 9.2 C 7.68 g/m*3 9.2 C 0 km/h
277 01-11-2008 19:21:21 9.2 C 7.68 g/m*3 9.2 C 0 km/h
278 01-11-2008 19:46:21 9.2 C 7.68 g/m*3 9.2 C 0 km/h
279 01-11-2008 20:11:21 9 C 7.41 g/m*3 9 C 0 km/h
280 01-11-2008 20:36:22 8.9 C 7.53 g/m*3 8.9 C 0 km/h
281 01-11-2008 21:01:22 8.7 C 7.52 g/m*3 8.7 C 0 km/h
282 01-11-2008 21:26:22 8.4 C 7.38 g/m*3 8.4 C 0 km/h
283 01-11-2008 21:51:22 8.3 C 7.42 g/m*3 8.3 C 0 km/h
284 01-11-2008 22:16:22 8.6 C 7.65 g/m*3 8.6 C 0 km/h
285 01-11-2008 22:41:22 8.6 C 7.73 g/m*3 8.6 C 0 km/h
286 01-11-2008 23:06:22 8.5 C 7.68 g/m*3 8.5 C 0 km/h
287 01-11-2008 23:31:22 8.4 C 7.63 g/m*3 8.4 C 0 km/h
288 01-11-2008 23:56:22 8.4 C 7.72 g/m*3 8.4 C 0 km/h
289 02-11-2008 00:21:22 8.5 C 7.77 g/m*3 8.5 C 0 km/h
290 02-11-2008 00:46:22 8.5 C 7.85 g/m*3 8.5 C 0 km/h
291 02-11-2008 01:11:22 9.6 C 7.79 g/m*3 9.6 C 0 km/h
292 02-11-2008 01:36:22 9.8 C 7.42 g/m*3 9.8 C 0 km/h
293 02-11-2008 02:01:22 9.3 C 7.46 g/m*3 9.3 C 0 km/h
294 02-11-2008 02:26:22 9.4 C 7.51 g/m*3 9.4 C 0 km/h
295 02-11-2008 02:51:22 9 C 7.41 g/m*3 9 C 0 km/h
296 02-11-2008 03:16:22 8.9 C 7.53 g/m*3 8.9 C 0 km/h
297 02-11-2008 03:41:22 8.5 C 7.43 g/m*3 8.5 C 0 km/h
298 02-11-2008 04:06:22 8.3 C 7.5 g/m*3 8.3 C 0 km/h
299 02-11-2008 04:31:22 8.1 C 7.49 g/m*3 8.1 C 0 km/h
300 02-11-2008 04:56:22 7.9 C 7.47 g/m*3 7.9 C 0 km/h
Sensor: Nr:Datum:Temp:Abs-Feuchte:Windchill:Wind:
Aussen-T/F 301 02-11-2008 05:21:23 7.6 C 7.41 g/m*3 7.6 C 0 km/h
302 02-11-2008 05:46:23 7.6 C 7.41 g/m*3 7.6 C 0 km/h
303 02-11-2008 06:11:23 7.4 C 7.4 g/m*3 7.4 C 0 km/h
304 02-11-2008 06:36:23 7.5 C 7.52 g/m*3 7.5 C 0 km/h
305 02-11-2008 07:01:23 7.4 C 7.48 g/m*3 7.4 C 0 km/h
306 02-11-2008 07:26:23 7.3 C 7.43 g/m*3 7.3 C 0 km/h
307 02-11-2008 07:51:23 7.1 C 7.33 g/m*3 7.1 C 0 km/h
308 02-11-2008 08:16:23 7.3 C 7.43 g/m*3 7.3 C 0 km/h
309 02-11-2008 08:41:23 7.6 C 7.65 g/m*3 7.6 C 0 km/h
310 02-11-2008 09:06:23 7.6 C 7.65 g/m*3 7.6 C 0 km/h
311 02-11-2008 09:31:23 8.1 C 7.82 g/m*3 8.1 C 0 km/h
312 02-11-2008 09:56:23 8.7 C 8.13 g/m*3 8.7 C 0 km/h
313 02-11-2008 10:21:23 9.5 C 8.47 g/m*3 9.5 C 0 km/h
314 02-11-2008 10:46:23 10.1 C 8.42 g/m*3 10.1 C 0 km/h
315 02-11-2008 11:11:23 10.8 C 8.2 g/m*3 10.8 C 0 km/h
316 02-11-2008 11:36:23 11.5 C 8.06 g/m*3 11.5 C 0 km/h
317 02-11-2008 12:01:23 12.5 C 8.25 g/m*3 12.5 C 0 km/h
318 02-11-2008 12:26:23 13.4 C 8.02 g/m*3 13.4 C 0 km/h
319 02-11-2008 12:51:23 13.5 C 7.84 g/m*3 13.5 C 0 km/h
320 02-11-2008 13:16:23 13.8 C 7.74 g/m*3 13.8 C 0 km/h
321 02-11-2008 13:41:24 14.1 C 7.89 g/m*3 14.1 C 0 km/h
322 02-11-2008 14:06:24 15.4 C 7.88 g/m*3 15.4 C 0 km/h
323 02-11-2008 14:31:24 14.8 C 7.73 g/m*3 14.8 C 0 km/h
324 02-11-2008 14:56:24 14.4 C 7.91 g/m*3 14.4 C 0 km/h
325 02-11-2008 15:21:24 14.4 C 7.91 g/m*3 14.4 C 0 km/h
Sensor: Nr:Datum:Temp:Abs-Feuchte:Windchill:Wind:
Aussen-T/F 326 02-11-2008 15:46:24 13.8 C 8.1 g/m*3 13.8 C 0 km/h
327 02-11-2008 16:11:24 13.5 C 8.19 g/m*3 13.5 C 0 km/h
328 02-11-2008 16:36:24 12.6 C 8.19 g/m*3 12.6 C 0 km/h
329 02-11-2008 17:01:24 11.8 C 8.1 g/m*3 11.8 C 0 km/h
330 02-11-2008 17:26:24 11.2 C 8.01 g/m*3 11.2 C 0 km/h
331 02-11-2008 17:51:24 10.6 C 8 g/m*3 10.6 C 0 km/h
332 02-11-2008 18:16:24 10.7 C 8.15 g/m*3 10.7 C 0 km/h
333 02-11-2008 18:41:24 10.1 C 7.85 g/m*3 10.1 C 0 km/h
334 02-11-2008 19:06:24 9.9 C 7.94 g/m*3 9.9 C 0 km/h
335 02-11-2008 19:31:24 9.8 C 7.89 g/m*3 9.8 C 0 km/h
336 02-11-2008 19:56:24 9.6 C 7.88 g/m*3 9.6 C 0 km/h
337 02-11-2008 20:21:24 9.4 C 7.87 g/m*3 9.4 C 0 km/h
338 02-11-2008 20:46:24 9.2 C 7.86 g/m*3 9.2 C 0 km/h
339 02-11-2008 21:11:24 9.1 C 7.81 g/m*3 9.1 C 0 km/h
340 02-11-2008 21:36:24 9.1 C 7.9 g/m*3 9.1 C 0 km/h
341 02-11-2008 22:01:24 9.2 C 7.95 g/m*3 9.2 C 0 km/h
342 02-11-2008 22:26:25 9 C 7.85 g/m*3 9 C 0 km/h
343 02-11-2008 22:51:25 8.7 C 7.7 g/m*3 8.7 C 0 km/h
344 02-11-2008 23:16:25 8.6 C 7.73 g/m*3 8.6 C 0 km/h
345 02-11-2008 23:41:25 8.2 C 7.62 g/m*3 8.2 C 0 km/h
346 03-11-2008 00:06:25 8.1 C 7.57 g/m*3 8.1 C 0 km/h
347 03-11-2008 00:31:25 8 C 7.52 g/m*3 8 C 0 km/h
348 03-11-2008 00:56:25 7.7 C 7.46 g/m*3 7.7 C 0 km/h
349 03-11-2008 01:21:25 7.8 C 7.59 g/m*3 7.8 C 0 km/h
350 03-11-2008 01:46:25 8 C 7.69 g/m*3 8 C 0 km/h
Sensor: Nr:Datum:Temp:Abs-Feuchte:Windchill:Wind:
Aussen-T/F 351 03-11-2008 02:11:25 8 C 7.69 g/m*3 8 C 0 km/h
352 03-11-2008 02:36:25 8 C 7.69 g/m*3 8 C 0 km/h
353 03-11-2008 03:01:25 8.5 C 8.03 g/m*3 8.5 C 0 km/h
354 03-11-2008 03:26:25 8.9 C 8.23 g/m*3 8.9 C 0 km/h
355 03-11-2008 03:51:25 9 C 8.11 g/m*3 9 C 0 km/h
356 03-11-2008 04:16:25 9.1 C 8.07 g/m*3 9.1 C 0 km/h
357 03-11-2008 04:41:25 9.1 C 7.99 g/m*3 9.1 C 0 km/h
358 03-11-2008 05:06:25 9.2 C 7.95 g/m*3 9.2 C 0 km/h
359 03-11-2008 05:31:25 9.2 C 7.86 g/m*3 9.2 C 0 km/h
360 03-11-2008 05:56:25 9.1 C 7.81 g/m*3 9.1 C 0 km/h
361 03-11-2008 06:21:25 9.2 C 7.86 g/m*3 9.2 C 0 km/h
362 03-11-2008 06:46:25 9.2 C 7.77 g/m*3 9.2 C 0 km/h
363 03-11-2008 07:11:26 9.2 C 7.77 g/m*3 9.2 C 0 km/h
364 03-11-2008 07:36:26 9.2 C 7.77 g/m*3 9.2 C 0 km/h
365 03-11-2008 08:01:26 9.4 C 7.87 g/m*3 9.4 C 0 km/h
366 03-11-2008 08:26:26 9.5 C 7.92 g/m*3 9.5 C 0 km/h
367 03-11-2008 08:51:26 9.8 C 8.07 g/m*3 9.8 C 0 km/h
368 03-11-2008 09:16:26 10.1 C 7.94 g/m*3 10.1 C 0 km/h
369 03-11-2008 09:41:26 10.2 C 7.9 g/m*3 10.2 C 0 km/h
370 03-11-2008 10:06:26 10.4 C 7.81 g/m*3 10.4 C 0 km/h
371 03-11-2008 10:31:26 10.5 C 7.76 g/m*3 10.5 C 0 km/h
372 03-11-2008 10:56:26 11.1 C 7.96 g/m*3 11.1 C 0 km/h
373 03-11-2008 11:21:26 11.4 C 7.8 g/m*3 11.4 C 0 km/h
374 03-11-2008 11:46:26 11.7 C 7.84 g/m*3 11.7 C 0 km/h
375 03-11-2008 12:11:26 12.7 C 8.24 g/m*3 12.7 C 0 km/h
Sensor: Nr:Datum:Temp:Abs-Feuchte:Windchill:Wind:
Aussen-T/F 376 03-11-2008 12:36:26 13.1 C 7.99 g/m*3 13.1 C 0 km/h
377 03-11-2008 13:01:26 13.4 C 7.9 g/m*3 13.4 C 0 km/h
378 03-11-2008 13:26:26 13.4 C 7.9 g/m*3 13.4 C 0 km/h
379 03-11-2008 13:51:26 13.5 C 7.72 g/m*3 13.5 C 0 km/h
380 03-11-2008 14:16:26 13.6 C 7.77 g/m*3 13.6 C 0 km/h
381 03-11-2008 14:41:26 14.4 C 7.79 g/m*3 14.4 C 0 km/h
382 03-11-2008 15:06:27 14 C 7.84 g/m*3 14 C 0 km/h
383 03-11-2008 15:31:27 13.3 C 8.09 g/m*3 13.3 C 0 km/h
384 03-11-2008 15:56:27 13.2 C 8.27 g/m*3 13.2 C 0 km/h
385 03-11-2008 16:21:27 12.7 C 8.24 g/m*3 12.7 C 0 km/h
386 03-11-2008 16:46:27 12.3 C 8.25 g/m*3 12.3 C 0 km/h
387 03-11-2008 17:11:27 11.5 C 8.06 g/m*3 11.5 C 0 km/h
388 03-11-2008 17:36:27 10.8 C 8.01 g/m*3 10.8 C 0 km/h
389 03-11-2008 18:01:27 10.1 C 7.85 g/m*3 10.1 C 0 km/h
390 03-11-2008 18:26:27 9.7 C 7.93 g/m*3 9.7 C 0 km/h
391 03-11-2008 18:51:27 9.3 C 7.82 g/m*3 9.3 C 0 km/h
392 03-11-2008 19:16:27 9 C 7.76 g/m*3 9 C 0 km/h
393 03-11-2008 19:41:27 8.5 C 7.6 g/m*3 8.5 C 0 km/h
394 03-11-2008 20:06:27 8.4 C 7.63 g/m*3 8.4 C 0 km/h
395 03-11-2008 20:31:27 8.1 C 7.49 g/m*3 8.1 C 0 km/h
396 03-11-2008 20:56:27 7.9 C 7.56 g/m*3 7.9 C 0 km/h
397 03-11-2008 21:21:27 7.5 C 7.36 g/m*3 7.5 C 0 km/h
398 03-11-2008 21:46:27 7.1 C 7.18 g/m*3 7.1 C 0 km/h
399 03-11-2008 22:11:27 6.8 C 7.11 g/m*3 6.8 C 0 km/h
400 03-11-2008 22:36:27 6.6 C 7.02 g/m*3 6.6 C 0 km/h
Sensor: Nr:Datum:Temp:Abs-Feuchte:Windchill:Wind:
Aussen-T/F 401 03-11-2008 23:01:27 6.4 C 6.93 g/m*3 6.4 C 0 km/h
402 03-11-2008 23:26:28 6.7 C 7.14 g/m*3 6.7 C 0 km/h
403 03-11-2008 23:51:28 7.1 C 7.33 g/m*3 7.1 C 0 km/h
404 04-11-2008 00:16:28 6.9 C 7.31 g/m*3 6.9 C 0 km/h
405 04-11-2008 00:41:28 6.7 C 7.22 g/m*3 6.7 C 0 km/h
406 04-11-2008 01:06:28 6.8 C 7.27 g/m*3 6.8 C 0 km/h
407 04-11-2008 01:31:28 6.8 C 7.27 g/m*3 6.8 C 0 km/h
408 04-11-2008 01:56:28 6.6 C 7.17 g/m*3 6.6 C 0 km/h
409 04-11-2008 02:21:28 6.5 C 7.12 g/m*3 6.5 C 0 km/h
410 04-11-2008 02:46:28 6.7 C 7.22 g/m*3 6.7 C 0 km/h
411 04-11-2008 03:11:28 6.8 C 7.27 g/m*3 6.8 C 0 km/h
412 04-11-2008 03:36:28 6.8 C 7.27 g/m*3 6.8 C 0 km/h
413 04-11-2008 04:01:28 6.8 C 7.27 g/m*3 6.8 C 0 km/h
414 04-11-2008 04:26:28 6.7 C 7.22 g/m*3 6.7 C 0 km/h
415 04-11-2008 04:51:28 6.8 C 7.27 g/m*3 6.8 C 0 km/h
416 04-11-2008 05:16:28 6.4 C 7.08 g/m*3 6.4 C 0 km/h
417 04-11-2008 05:41:28 6.3 C 7.03 g/m*3 6.3 C 0 km/h
418 04-11-2008 06:06:28 6.2 C 6.99 g/m*3 6.2 C 0 km/h
419 04-11-2008 06:31:28 6.3 C 7.03 g/m*3 6.3 C 0 km/h
420 04-11-2008 06:56:28 6.4 C 7.08 g/m*3 6.4 C 0 km/h
421 04-11-2008 07:21:29 6.4 C 7.08 g/m*3 6.4 C 0 km/h
422 04-11-2008 07:46:29 6.5 C 7.12 g/m*3 6.5 C 0 km/h
423 04-11-2008 08:11:29 6.6 C 7.17 g/m*3 6.6 C 0 km/h
424 04-11-2008 08:36:29 6.6 C 7.17 g/m*3 6.6 C 0 km/h
425 04-11-2008 09:01:29 6.9 C 7.31 g/m*3 6.9 C 0 km/h
Sensor: Nr:Datum:Temp:Abs-Feuchte:Windchill:Wind:
Aussen-T/F 426 04-11-2008 09:26:29 7.4 C 7.55 g/m*3 7.4 C 0 km/h
427 04-11-2008 09:51:29 7.7 C 7.7 g/m*3 7.7 C 0 km/h
428 04-11-2008 10:16:29 8.1 C 7.9 g/m*3 8.1 C 0 km/h
429 04-11-2008 10:41:29 7.8 C 7.75 g/m*3 7.8 C 0 km/h
430 04-11-2008 11:06:29 8.5 C 8.03 g/m*3 8.5 C 0 km/h
431 04-11-2008 11:31:29 9 C 8.11 g/m*3 9 C 0 km/h
432 04-11-2008 11:56:29 9 C 7.93 g/m*3 9 C 0 km/h
433 04-11-2008 12:21:29 9.1 C 7.81 g/m*3 9.1 C 0 km/h
434 04-11-2008 12:46:29 9.7 C 8.11 g/m*3 9.7 C 0 km/h
435 04-11-2008 13:11:29 12 C 8.85 g/m*3 12 C 0 km/h
436 04-11-2008 13:36:29 13.7 C 8.05 g/m*3 13.7 C 0 km/h
437 04-11-2008 14:01:29 14.5 C 8.46 g/m*3 14.5 C 0 km/h
438 04-11-2008 14:26:29 14.4 C 8.41 g/m*3 14.4 C 0 km/h
439 04-11-2008 14:51:29 14.4 C 8.41 g/m*3 14.4 C 0 km/h
440 04-11-2008 15:16:30 13.9 C 8.51 g/m*3 13.9 C 0 km/h
441 04-11-2008 15:41:30 13.4 C 8.49 g/m*3 13.4 C 0 km/h
442 04-11-2008 16:06:30 12.8 C 8.4 g/m*3 12.8 C 0 km/h
443 04-11-2008 16:31:30 12.1 C 8.36 g/m*3 12.1 C 0 km/h
444 04-11-2008 16:56:30 11.8 C 8.21 g/m*3 11.8 C 0 km/h
445 04-11-2008 17:21:30 11.9 C 8.26 g/m*3 11.9 C 0 km/h
446 04-11-2008 17:46:30 11.1 C 8.16 g/m*3 11.1 C 0 km/h
447 04-11-2008 18:11:30 10.9 C 8.26 g/m*3 10.9 C 0 km/h
448 04-11-2008 18:36:30 10.8 C 8.4 g/m*3 10.8 C 0 km/h
449 04-11-2008 19:01:30 10.6 C 8.39 g/m*3 10.6 C 0 km/h
450 04-11-2008 19:26:30 10.4 C 8.29 g/m*3 10.4 C 0 km/h
Sensor: Nr:Datum:Temp:Abs-Feuchte:Windchill:Wind:
Aussen-T/F 451 04-11-2008 19:51:30 10.2 C 8.28 g/m*3 10.2 C 0 km/h
452 04-11-2008 20:16:30 10.1 C 8.32 g/m*3 10.1 C 0 km/h
453 04-11-2008 20:41:30 9.7 C 8.2 g/m*3 9.7 C 0 km/h
454 04-11-2008 21:06:30 9.3 C 8.09 g/m*3 9.3 C 0 km/h
455 04-11-2008 21:31:30 9.1 C 7.99 g/m*3 9.1 C 0 km/h
456 04-11-2008 21:56:30 9.1 C 8.07 g/m*3 9.1 C 0 km/h
457 04-11-2008 22:21:30 9.1 C 8.16 g/m*3 9.1 C 0 km/h
458 04-11-2008 22:46:30 8.7 C 8.04 g/m*3 8.7 C 0 km/h
459 04-11-2008 23:11:31 8.4 C 7.89 g/m*3 8.4 C 0 km/h
460 04-11-2008 23:36:31 9 C 8.2 g/m*3 9 C 0 km/h
461 05-11-2008 00:01:31 8.7 C 8.04 g/m*3 8.7 C 0 km/h
462 05-11-2008 00:26:31 8.7 C 8.04 g/m*3 8.7 C 0 km/h
463 05-11-2008 00:51:31 8.6 C 7.99 g/m*3 8.6 C 0 km/h
464 05-11-2008 01:16:31 8.7 C 8.04 g/m*3 8.7 C 0 km/h
465 05-11-2008 01:41:31 8.8 C 7.92 g/m*3 8.8 C 0 km/h
466 05-11-2008 02:06:31 8.7 C 7.7 g/m*3 8.7 C 0 km/h
467 05-11-2008 02:31:31 8.5 C 7.6 g/m*3 8.5 C 0 km/h
468 05-11-2008 02:56:31 8.4 C 7.55 g/m*3 8.4 C 0 km/h
469 05-11-2008 03:21:31 8.3 C 7.5 g/m*3 8.3 C 0 km/h
470 05-11-2008 03:46:31 8.4 C 7.55 g/m*3 8.4 C 0 km/h
471 05-11-2008 04:11:31 8.2 C 7.37 g/m*3 8.2 C 0 km/h
472 05-11-2008 04:36:31 7.9 C 7.39 g/m*3 7.9 C 0 km/h
473 05-11-2008 05:01:31 8.2 C 7.45 g/m*3 8.2 C 0 km/h
474 05-11-2008 05:26:31 8.4 C 7.55 g/m*3 8.4 C 0 km/h
475 05-11-2008 05:51:31 8.4 C 7.55 g/m*3 8.4 C 0 km/h
Sensor: Nr:Datum:Temp:Abs-Feuchte:Windchill:Wind:
Aussen-T/F 476 05-11-2008 06:16:31 8.4 C 7.38 g/m*3 8.4 C 0 km/h
477 05-11-2008 06:41:31 8.5 C 7.34 g/m*3 8.5 C 0 km/h
478 05-11-2008 07:06:31 8.4 C 7.21 g/m*3 8.4 C 0 km/h
479 05-11-2008 07:31:32 8.4 C 7.21 g/m*3 8.4 C 0 km/h
480 05-11-2008 07:56:32 8.5 C 7.26 g/m*3 8.5 C 0 km/h
481 05-11-2008 08:21:32 8.7 C 7.35 g/m*3 8.7 C 0 km/h
482 05-11-2008 08:46:32 8.9 C 7.45 g/m*3 8.9 C 0 km/h
483 05-11-2008 09:11:32 9.2 C 7.5 g/m*3 9.2 C 0 km/h
484 05-11-2008 09:36:32 9.8 C 7.79 g/m*3 9.8 C 0 km/h
485 05-11-2008 10:01:32 10 C 7.42 g/m*3 10 C 0 km/h
486 05-11-2008 10:26:32 10.7 C 7.46 g/m*3 10.7 C 0 km/h
487 05-11-2008 10:51:32 10.7 C 7.46 g/m*3 10.7 C 0 km/h
488 05-11-2008 11:16:32 10.9 C 7.46 g/m*3 10.9 C 0 km/h
489 05-11-2008 11:41:32 11 C 7.51 g/m*3 11 C 0 km/h
490 05-11-2008 12:06:32 11.1 C 7.45 g/m*3 11.1 C 0 km/h
491 05-11-2008 12:31:32 11 C 7.41 g/m*3 11 C 0 km/h
492 05-11-2008 12:56:32 10.8 C 7.51 g/m*3 10.8 C 0 km/h
493 05-11-2008 13:21:32 11 C 7.61 g/m*3 11 C 0 km/h
494 05-11-2008 13:46:32 11.2 C 7.6 g/m*3 11.2 C 0 km/h
495 05-11-2008 14:11:32 11.2 C 7.7 g/m*3 11.2 C 0 km/h
496 05-11-2008 14:36:32 11.4 C 7.8 g/m*3 11.4 C 0 km/h
497 05-11-2008 15:01:32 11.5 C 7.64 g/m*3 11.5 C 0 km/h
498 05-11-2008 15:26:33 11.5 C 7.64 g/m*3 11.5 C 0 km/h
499 05-11-2008 15:51:33 11.4 C 7.7 g/m*3 11.4 C 0 km/h
500 05-11-2008 16:16:33 11.1 C 7.66 g/m*3 11.1 C 0 km/h
Sensor: Nr:Datum:Temp:Abs-Feuchte:Windchill:Wind:
Aussen-T/F 501 05-11-2008 16:41:33 10.9 C 7.76 g/m*3 10.9 C 0 km/h
502 05-11-2008 17:06:33 10.7 C 7.66 g/m*3 10.7 C 0 km/h
503 05-11-2008 17:31:33 10.5 C 7.66 g/m*3 10.5 C 0 km/h
504 05-11-2008 17:56:33 10.5 C 7.76 g/m*3 10.5 C 0 km/h
505 05-11-2008 18:21:33 10.4 C 7.81 g/m*3 10.4 C 0 km/h
506 05-11-2008 18:46:33 10.4 C 7.81 g/m*3 10.4 C 0 km/h
507 05-11-2008 19:11:33 10.4 C 7.9 g/m*3 10.4 C 0 km/h
508 05-11-2008 19:36:33 10.3 C 7.85 g/m*3 10.3 C 0 km/h
509 05-11-2008 20:01:33 10.3 C 7.85 g/m*3 10.3 C 0 km/h
510 05-11-2008 20:26:33 10.3 C 7.95 g/m*3 10.3 C 0 km/h
511 05-11-2008 20:51:33 10.2 C 7.9 g/m*3 10.2 C 0 km/h
512 05-11-2008 21:16:33 10.2 C 7.9 g/m*3 10.2 C 0 km/h
513 05-11-2008 21:41:33 10.2 C 7.9 g/m*3 10.2 C 0 km/h
514 05-11-2008 22:06:33 10.2 C 7.9 g/m*3 10.2 C 0 km/h
515 05-11-2008 22:31:33 10.2 C 7.99 g/m*3 10.2 C 0 km/h
516 05-11-2008 22:56:33 10.2 C 7.99 g/m*3 10.2 C 0 km/h
517 05-11-2008 23:21:34 10.2 C 7.99 g/m*3 10.2 C 0 km/h
518 05-11-2008 23:46:34 10 C 7.99 g/m*3 10 C 0 km/h
519 06-11-2008 00:11:34 10 C 7.99 g/m*3 10 C 0 km/h
520 06-11-2008 00:36:34 10 C 7.99 g/m*3 10 C 0 km/h
521 06-11-2008 01:01:34 10 C 7.99 g/m*3 10 C 0 km/h
522 06-11-2008 01:26:34 9.9 C 8.12 g/m*3 9.9 C 0 km/h
523 06-11-2008 01:51:34 9.8 C 8.07 g/m*3 9.8 C 0 km/h
524 06-11-2008 02:16:34 9.8 C 7.98 g/m*3 9.8 C 0 km/h
525 06-11-2008 02:41:34 9.7 C 7.84 g/m*3 9.7 C 0 km/h
Sensor: Nr:Datum:Temp:Abs-Feuchte:Windchill:Wind:
Aussen-T/F 526 06-11-2008 03:06:34 9.5 C 7.74 g/m*3 9.5 C 0 km/h
527 06-11-2008 03:31:34 9.3 C 7.73 g/m*3 9.3 C 0 km/h
528 06-11-2008 03:56:34 8.9 C 7.62 g/m*3 8.9 C 0 km/h
529 06-11-2008 04:21:34 8.5 C 7.43 g/m*3 8.5 C 0 km/h
530 06-11-2008 04:46:34 8.6 C 7.48 g/m*3 8.6 C 0 km/h
531 06-11-2008 05:11:34 8.9 C 7.71 g/m*3 8.9 C 0 km/h
532 06-11-2008 05:36:34 9 C 7.58 g/m*3 9 C 0 km/h
533 06-11-2008 06:01:34 9 C 7.58 g/m*3 9 C 0 km/h
534 06-11-2008 06:26:34 9.3 C 7.64 g/m*3 9.3 C 0 km/h
535 06-11-2008 06:51:34 9.3 C 7.46 g/m*3 9.3 C 0 km/h
536 06-11-2008 07:16:34 9.3 C 7.46 g/m*3 9.3 C 0 km/h
537 06-11-2008 07:41:35 9.1 C 7.36 g/m*3 9.1 C 0 km/h
538 06-11-2008 08:06:35 9.4 C 7.51 g/m*3 9.4 C 0 km/h
539 06-11-2008 08:31:35 9.7 C 7.56 g/m*3 9.7 C 0 km/h
540 06-11-2008 08:56:35 10 C 7.42 g/m*3 10 C 0 km/h
541 06-11-2008 09:21:35 10.3 C 7.47 g/m*3 10.3 C 0 km/h
542 06-11-2008 09:46:35 10.6 C 7.12 g/m*3 10.6 C 0 km/h
543 06-11-2008 10:11:35 11 C 7.01 g/m*3 11 C 0 km/h
544 06-11-2008 10:36:35 11.3 C 7.04 g/m*3 11.3 C 0 km/h
545 06-11-2008 11:01:35 12.1 C 7.18 g/m*3 12.1 C 0 km/h
546 06-11-2008 11:26:35 12.4 C 7.1 g/m*3 12.4 C 0 km/h
547 06-11-2008 11:51:35 12.2 C 6.91 g/m*3 12.2 C 0 km/h
548 06-11-2008 12:16:35 12.2 C 6.91 g/m*3 12.2 C 0 km/h
549 06-11-2008 12:41:35 12.1 C 6.97 g/m*3 12.1 C 0 km/h
550 06-11-2008 13:06:35 12.6 C 7.08 g/m*3 12.6 C 0 km/h
Sensor: Nr:Datum:Temp:Abs-Feuchte:Windchill:Wind:
Aussen-T/F 551 06-11-2008 13:31:35 12.7 C 7.01 g/m*3 12.7 C 0 km/h
552 06-11-2008 13:56:35 12.4 C 7.1 g/m*3 12.4 C 0 km/h
553 06-11-2008 14:21:35 13 C 7.14 g/m*3 13 C 0 km/h
554 06-11-2008 14:46:35 13.1 C 6.96 g/m*3 13.1 C 0 km/h
555 06-11-2008 15:11:35 13 C 6.92 g/m*3 13 C 0 km/h
556 06-11-2008 15:36:36 12.6 C 6.97 g/m*3 12.6 C 0 km/h
557 06-11-2008 16:01:36 12.4 C 6.99 g/m*3 12.4 C 0 km/h
558 06-11-2008 16:26:36 11.8 C 6.95 g/m*3 11.8 C 0 km/h
559 06-11-2008 16:51:36 11.4 C 6.98 g/m*3 11.4 C 0 km/h
560 06-11-2008 17:16:36 11.1 C 6.95 g/m*3 11.1 C 0 km/h
561 06-11-2008 17:41:36 10.9 C 7.06 g/m*3 10.9 C 0 km/h
562 06-11-2008 18:06:36 10.1 C 6.9 g/m*3 10.1 C 0 km/h
563 06-11-2008 18:31:36 10.1 C 7 g/m*3 10.1 C 0 km/h
564 06-11-2008 18:56:36 10.2 C 7.04 g/m*3 10.2 C 0 km/h
565 06-11-2008 19:21:36 10.4 C 7.13 g/m*3 10.4 C 0 km/h
566 06-11-2008 19:46:36 10.3 C 7.09 g/m*3 10.3 C 0 km/h
567 06-11-2008 20:11:36 10.2 C 7.14 g/m*3 10.2 C 0 km/h
568 06-11-2008 20:36:36 10.3 C 7.28 g/m*3 10.3 C 0 km/h
569 06-11-2008 21:01:36 10.2 C 7.23 g/m*3 10.2 C 0 km/h
570 06-11-2008 21:26:36 10.4 C 7.23 g/m*3 10.4 C 0 km/h
571 06-11-2008 21:51:36 10.3 C 7.18 g/m*3 10.3 C 0 km/h
572 06-11-2008 22:16:36 10.2 C 7.33 g/m*3 10.2 C 0 km/h
573 06-11-2008 22:41:36 10.2 C 7.33 g/m*3 10.2 C 0 km/h
574 06-11-2008 23:06:36 10.1 C 7.28 g/m*3 10.1 C 0 km/h
575 06-11-2008 23:31:37 10.2 C 7.23 g/m*3 10.2 C 0 km/h
Sensor: Nr:Datum:Temp:Abs-Feuchte:Windchill:Wind:
Aussen-T/F 576 06-11-2008 23:56:37 10.2 C 7.23 g/m*3 10.2 C 0 km/h
577 07-11-2008 00:21:37 10.1 C 7.19 g/m*3 10.1 C 0 km/h
578 07-11-2008 00:46:37 10.1 C 7.19 g/m*3 10.1 C 0 km/h
579 07-11-2008 01:11:37 10 C 7.24 g/m*3 10 C 0 km/h
580 07-11-2008 01:36:37 10 C 7.24 g/m*3 10 C 0 km/h
581 07-11-2008 02:01:37 10 C 7.14 g/m*3 10 C 0 km/h
582 07-11-2008 02:26:37 10 C 7.14 g/m*3 10 C 0 km/h
583 07-11-2008 02:51:37 9.9 C 7.28 g/m*3 9.9 C 0 km/h
584 07-11-2008 03:16:37 9.9 C 7.19 g/m*3 9.9 C 0 km/h
585 07-11-2008 03:41:37 10 C 7.14 g/m*3 10 C 0 km/h
586 07-11-2008 04:06:37 10.2 C 7.14 g/m*3 10.2 C 0 km/h
587 07-11-2008 04:31:37 10.1 C 7.19 g/m*3 10.1 C 0 km/h
588 07-11-2008 04:56:37 10.3 C 7.28 g/m*3 10.3 C 0 km/h
589 07-11-2008 05:21:37 10.3 C 7.28 g/m*3 10.3 C 0 km/h
590 07-11-2008 05:46:37 10.2 C 7.23 g/m*3 10.2 C 0 km/h
591 07-11-2008 06:11:37 10.1 C 7.19 g/m*3 10.1 C 0 km/h
592 07-11-2008 06:36:37 10 C 7.14 g/m*3 10 C 0 km/h
593 07-11-2008 07:01:37 10.1 C 7.09 g/m*3 10.1 C 0 km/h
594 07-11-2008 07:26:38 10.1 C 7 g/m*3 10.1 C 0 km/h
595 07-11-2008 07:51:38 9.8 C 7.05 g/m*3 9.8 C 0 km/h
596 07-11-2008 08:16:38 9.6 C 7.15 g/m*3 9.6 C 0 km/h
597 07-11-2008 08:41:38 10.3 C 6.99 g/m*3 10.3 C 0 km/h
598 07-11-2008 09:06:38 10.8 C 7.02 g/m*3 10.8 C 0 km/h
599 07-11-2008 09:31:38 11 C 6.91 g/m*3 11 C 0 km/h
600 07-11-2008 09:56:38 11.1 C 6.95 g/m*3 11.1 C 0 km/h
Sensor: Nr:Datum:Temp:Abs-Feuchte:Windchill:Wind:
Aussen-T/F 601 07-11-2008 10:21:38 11.3 C 7.04 g/m*3 11.3 C 0 km/h
602 07-11-2008 10:46:38 11.2 C 6.89 g/m*3 11.2 C 0 km/h
603 07-11-2008 11:11:38 11.6 C 6.96 g/m*3 11.6 C 0 km/h
604 07-11-2008 11:36:38 12.2 C 6.91 g/m*3 12.2 C 0 km/h
605 07-11-2008 12:01:38 12.7 C 6.9 g/m*3 12.7 C 0 km/h
606 07-11-2008 12:26:38 13.1 C 6.85 g/m*3 13.1 C 0 km/h
607 07-11-2008 12:51:38 13.2 C 6.77 g/m*3 13.2 C 0 km/h
608 07-11-2008 13:16:38 13.8 C 6.91 g/m*3 13.8 C 0 km/h
609 07-11-2008 13:41:38 13.6 C 6.71 g/m*3 13.6 C 0 km/h
610 07-11-2008 14:06:38 13.8 C 7.03 g/m*3 13.8 C 0 km/h
611 07-11-2008 14:31:38 14.5 C 7.09 g/m*3 14.5 C 0 km/h
612 07-11-2008 14:56:38 14 C 7 g/m*3 14 C 0 km/h
613 07-11-2008 15:21:38 13.8 C 7.27 g/m*3 13.8 C 0 km/h
614 07-11-2008 15:46:39 13.5 C 7.37 g/m*3 13.5 C 0 km/h
615 07-11-2008 16:11:39 13.1 C 7.3 g/m*3 13.1 C 0 km/h
616 07-11-2008 16:36:39 12.7 C 7.57 g/m*3 12.7 C 0 km/h
617 07-11-2008 17:01:39 12.4 C 7.43 g/m*3 12.4 C 0 km/h
618 07-11-2008 17:26:39 11.8 C 7.26 g/m*3 11.8 C 0 km/h
619 07-11-2008 17:51:39 11.1 C 7.15 g/m*3 11.1 C 0 km/h
620 07-11-2008 18:16:39 10.4 C 7.23 g/m*3 10.4 C 0 km/h
621 07-11-2008 18:41:39 10.4 C 7.42 g/m*3 10.4 C 0 km/h
622 07-11-2008 19:06:39 10.7 C 7.56 g/m*3 10.7 C 0 km/h
623 07-11-2008 19:31:39 10.6 C 7.32 g/m*3 10.6 C 0 km/h
624 07-11-2008 19:56:39 10 C 7.33 g/m*3 10 C 0 km/h
625 07-11-2008 20:21:39 9.9 C 7.56 g/m*3 9.9 C 0 km/h
Sensor: Nr:Datum:Temp:Abs-Feuchte:Windchill:Wind:
Aussen-T/F 626 07-11-2008 20:46:39 9.5 C 7.37 g/m*3 9.5 C 0 km/h
627 07-11-2008 21:11:39 9.1 C 7.36 g/m*3 9.1 C 0 km/h
628 07-11-2008 21:36:39 8.7 C 7.44 g/m*3 8.7 C 0 km/h
629 07-11-2008 22:01:39 8.4 C 7.38 g/m*3 8.4 C 0 km/h
630 07-11-2008 22:26:39 7.9 C 7.31 g/m*3 7.9 C 0 km/h
631 07-11-2008 22:51:39 7.5 C 7.12 g/m*3 7.5 C 0 km/h
632 07-11-2008 23:16:39 7.3 C 7.03 g/m*3 7.3 C 0 km/h
633 07-11-2008 23:41:40 7.3 C 7.11 g/m*3 7.3 C 0 km/h
634 08-11-2008 00:06:40 7.3 C 7.19 g/m*3 7.3 C 0 km/h
635 08-11-2008 00:31:40 6.9 C 7.08 g/m*3 6.9 C 0 km/h
636 08-11-2008 00:56:40 7.1 C 7.18 g/m*3 7.1 C 0 km/h
637 08-11-2008 01:21:40 7 C 7.13 g/m*3 7 C 0 km/h
638 08-11-2008 01:46:40 7.2 C 7.3 g/m*3 7.2 C 0 km/h
639 08-11-2008 02:11:40 7.3 C 7.35 g/m*3 7.3 C 0 km/h
640 08-11-2008 02:36:40 7.5 C 7.44 g/m*3 7.5 C 0 km/h
641 08-11-2008 03:01:40 7.8 C 7.59 g/m*3 7.8 C 0 km/h
642 08-11-2008 03:26:40 7.9 C 7.56 g/m*3 7.9 C 0 km/h
643 08-11-2008 03:51:40 8.1 C 7.57 g/m*3 8.1 C 0 km/h
644 08-11-2008 04:16:40 8.2 C 7.62 g/m*3 8.2 C 0 km/h
645 08-11-2008 04:41:40 8.3 C 7.67 g/m*3 8.3 C 0 km/h
646 08-11-2008 05:06:40 8.3 C 7.59 g/m*3 8.3 C 0 km/h
647 08-11-2008 05:31:40 8 C 7.44 g/m*3 8 C 0 km/h
648 08-11-2008 05:56:40 8.6 C 7.82 g/m*3 8.6 C 0 km/h
649 08-11-2008 06:21:40 8.6 C 7.65 g/m*3 8.6 C 0 km/h
650 08-11-2008 06:46:40 8.5 C 7.6 g/m*3 8.5 C 0 km/h
Sensor: Nr:Datum:Temp:Abs-Feuchte:Windchill:Wind:
Aussen-T/F 651 08-11-2008 07:11:40 8.5 C 7.77 g/m*3 8.5 C 0 km/h
652 08-11-2008 07:36:41 8 C 7.52 g/m*3 8 C 0 km/h
653 08-11-2008 08:01:41 7.9 C 7.64 g/m*3 7.9 C 0 km/h
654 08-11-2008 08:26:41 7.3 C 7.27 g/m*3 7.3 C 0 km/h
655 08-11-2008 08:51:41 7.2 C 7.3 g/m*3 7.2 C 0 km/h
656 08-11-2008 09:16:41 7.6 C 7.57 g/m*3 7.6 C 0 km/h
657 08-11-2008 09:41:41 8.2 C 7.87 g/m*3 8.2 C 0 km/h
658 08-11-2008 10:06:41 8.7 C 8.13 g/m*3 8.7 C 0 km/h
659 08-11-2008 10:31:41 8.9 C 7.88 g/m*3 8.9 C 0 km/h
660 08-11-2008 10:56:41 9.3 C 7.28 g/m*3 9.3 C 0 km/h
661 08-11-2008 11:21:41 9.7 C 6.36 g/m*3 9.7 C 0 km/h
662 08-11-2008 11:46:41 10.3 C 6.03 g/m*3 10.3 C 0 km/h
663 08-11-2008 12:11:41 10.9 C 5.97 g/m*3 10.9 C 0 km/h
664 08-11-2008 12:36:41 11.7 C 5.86 g/m*3 11.7 C 0 km/h
665 08-11-2008 13:01:41 12.2 C 5.4 g/m*3 12.2 C 0 km/h
666 08-11-2008 13:26:41 12.4 C 5.14 g/m*3 12.4 C 0 km/h
667 08-11-2008 13:51:01 12 C 5.33 g/m*3 12 C 0 km/h
668 08-11-2008 14:16:01 11.9 C 5.51 g/m*3 11.9 C 0 km/h
669 08-11-2008 14:41:01 12 C 5.44 g/m*3 12 C 0 km/h
670 08-11-2008 15:06:02 11.8 C 5.79 g/m*3 11.8 C 0 km/h
671 08-11-2008 15:31:02 12 C 5.86 g/m*3 12 C 0 km/h
672 08-11-2008 15:56:02 11.2 C 5.98 g/m*3 11.2 C 0 km/h
673 08-11-2008 16:21:02 10.2 C 5.8 g/m*3 10.2 C 0 km/h
674 08-11-2008 16:46:02 9.5 C 6.01 g/m*3 9.5 C 0 km/h
675 08-11-2008 17:11:02 8.8 C 6.09 g/m*3 8.8 C 0 km/h
Sensor: Nr:Datum:Temp:Abs-Feuchte:Windchill:Wind:
Aussen-T/F 676 08-11-2008 17:36:02 8.2 C 6.03 g/m*3 8.2 C 0 km/h
677 08-11-2008 18:01:02 7.7 C 6.08 g/m*3 7.7 C 0 km/h
678 08-11-2008 18:26:01 7.4 C 6.04 g/m*3 7.4 C 0 km/h
679 08-11-2008 18:51:01 7.2 C 6.12 g/m*3 7.2 C 0 km/h
680 08-11-2008 19:16:02 6.8 C 6.12 g/m*3 6.8 C 0 km/h
681 08-11-2008 19:41:02 6.5 C 6.15 g/m*3 6.5 C 0 km/h
682 08-11-2008 20:06:02 6.1 C 5.99 g/m*3 6.1 C 0 km/h
683 08-11-2008 20:31:02 5.8 C 6.02 g/m*3 5.8 C 0 km/h
684 08-11-2008 20:56:02 5.6 C 6.08 g/m*3 5.6 C 0 km/h
685 08-11-2008 21:21:02 5.3 C 5.96 g/m*3 5.3 C 0 km/h
686 08-11-2008 21:46:02 5.2 C 6.06 g/m*3 5.2 C 0 km/h
687 08-11-2008 22:11:03 5.1 C 6.02 g/m*3 5.1 C 0 km/h
688 08-11-2008 22:36:03 4.7 C 6 g/m*3 4.7 C 0 km/h
689 08-11-2008 23:01:02 4.9 C 6.14 g/m*3 4.9 C 0 km/h
690 08-11-2008 23:26:02 5.3 C 6.38 g/m*3 5.3 C 0 km/h
691 08-11-2008 23:50:02 5.8 C 6.66 g/m*3 5.8 C 0 km/h
692 09-11-2008 00:02:03 6.4 C 6.85 g/m*3 6.4 C 0 km/h
693 09-11-2008 00:14:03 6.7 C 6.84 g/m*3 6.7 C 0 km/h
694 09-11-2008 00:26:03 6.7 C 6.76 g/m*3 6.7 C 0 km/h
695 09-11-2008 00:38:03 7 C 6.74 g/m*3 7 C 0 km/h
696 09-11-2008 00:50:02 7 C 6.59 g/m*3 7 C 0 km/h
697 09-11-2008 01:02:03 6.6 C 6.42 g/m*3 6.6 C 0 km/h
698 09-11-2008 01:14:03 6.7 C 6.53 g/m*3 6.7 C 0 km/h
699 09-11-2008 01:26:02 6.5 C 6.37 g/m*3 6.5 C 0 km/h
700 09-11-2008 01:38:03 6.5 C 6.45 g/m*3 6.5 C 0 km/h
Sensor: Nr:Datum:Temp:Abs-Feuchte:Windchill:Wind:
Aussen-T/F 701 09-11-2008 01:50:02 6.4 C 6.41 g/m*3 6.4 C 0 km/h
702 09-11-2008 02:02:01 7.1 C 6.63 g/m*3 7.1 C 0 km/h
703 09-11-2008 02:14:01 7.5 C 6.56 g/m*3 7.5 C 0 km/h
704 09-11-2008 02:26:02 7.3 C 6.4 g/m*3 7.3 C 0 km/h
705 09-11-2008 02:38:01 7.6 C 6.53 g/m*3 7.6 C 0 km/h
706 09-11-2008 02:50:01 7.5 C 6.32 g/m*3 7.5 C 0 km/h
707 09-11-2008 03:02:01 7.7 C 6.49 g/m*3 7.7 C 0 km/h
708 09-11-2008 03:14:02 8 C 6.45 g/m*3 8 C 0 km/h
709 09-11-2008 03:26:02 8 C 6.45 g/m*3 8 C 0 km/h
710 09-11-2008 03:38:01 8.2 C 6.53 g/m*3 8.2 C 0 km/h
711 09-11-2008 03:50:01 8.8 C 6.61 g/m*3 8.8 C 0 km/h
712 09-11-2008 04:02:01 9.3 C 6.56 g/m*3 9.3 C 0 km/h
713 09-11-2008 04:14:01 9.4 C 6.51 g/m*3 9.4 C 0 km/h
714 09-11-2008 04:26:01 9.6 C 6.5 g/m*3 9.6 C 0 km/h
715 09-11-2008 04:38:01 9.3 C 6.47 g/m*3 9.3 C 0 km/h
716 09-11-2008 04:50:02 9.3 C 6.56 g/m*3 9.3 C 0 km/h
717 09-11-2008 05:02:01 9.2 C 6.52 g/m*3 9.2 C 0 km/h
718 09-11-2008 05:14:01 9.6 C 6.6 g/m*3 9.6 C 0 km/h
719 09-11-2008 05:26:02 9.7 C 6.64 g/m*3 9.7 C 0 km/h
720 09-11-2008 05:38:01 9.7 C 6.64 g/m*3 9.7 C 0 km/h
721 09-11-2008 05:50:02 9.6 C 6.6 g/m*3 9.6 C 0 km/h
722 09-11-2008 06:02:01 9.6 C 6.69 g/m*3 9.6 C 0 km/h
723 09-11-2008 06:14:01 9.6 C 6.6 g/m*3 9.6 C 0 km/h
724 09-11-2008 06:26:02 9.8 C 6.68 g/m*3 9.8 C 0 km/h
725 09-11-2008 06:38:01 9.7 C 6.64 g/m*3 9.7 C 0 km/h
Sensor: Nr:Datum:Temp:Abs-Feuchte:Windchill:Wind:
Aussen-T/F 726 09-11-2008 06:50:02 9.7 C 6.64 g/m*3 9.7 C 0 km/h
727 09-11-2008 07:02:01 9.9 C 6.82 g/m*3 9.9 C 0 km/h
728 09-11-2008 07:14:01 10 C 6.77 g/m*3 10 C 0 km/h
729 09-11-2008 07:26:02 9.8 C 6.87 g/m*3 9.8 C 0 km/h
730 09-11-2008 07:38:01 9.4 C 7.15 g/m*3 9.4 C 0 km/h
731 09-11-2008 07:50:01 9.2 C 7.41 g/m*3 9.2 C 0 km/h
732 09-11-2008 08:02:01 9.3 C 7.64 g/m*3 9.3 C 0 km/h
733 09-11-2008 08:14:01 9.1 C 7.72 g/m*3 9.1 C 0 km/h
734 09-11-2008 08:26:01 9.3 C 7.82 g/m*3 9.3 C 0 km/h
735 09-11-2008 08:38:01 9.4 C 7.96 g/m*3 9.4 C 0 km/h
736 09-11-2008 08:50:01 9.4 C 7.96 g/m*3 9.4 C 0 km/h
737 09-11-2008 09:02:02 9.6 C 8.15 g/m*3 9.6 C 0 km/h
738 09-11-2008 09:14:02 9.6 C 8.15 g/m*3 9.6 C 0 km/h
739 09-11-2008 09:26:01 9.7 C 8.2 g/m*3 9.7 C 0 km/h
740 09-11-2008 09:38:01 9.7 C 8.2 g/m*3 9.7 C 0 km/h
741 09-11-2008 09:50:01 9.8 C 8.35 g/m*3 9.8 C 0 km/h
742 09-11-2008 10:02:02 9.7 C 8.3 g/m*3 9.7 C 0 km/h
743 09-11-2008 10:14:02 9.7 C 8.3 g/m*3 9.7 C 0 km/h
744 09-11-2008 10:26:01 9.7 C 8.39 g/m*3 9.7 C 0 km/h
745 09-11-2008 10:38:02 9.8 C 8.44 g/m*3 9.8 C 0 km/h
746 09-11-2008 10:50:01 9.8 C 8.54 g/m*3 9.8 C 0 km/h
747 09-11-2008 11:02:02 9.8 C 8.54 g/m*3 9.8 C 0 km/h
748 09-11-2008 11:14:02 9.9 C 8.59 g/m*3 9.9 C 0 km/h
749 09-11-2008 11:26:01 10.1 C 8.7 g/m*3 10.1 C 0 km/h
750 09-11-2008 11:38:02 10.3 C 8.81 g/m*3 10.3 C 0 km/h
Sensor: Nr:Datum:Temp:Abs-Feuchte:Windchill:Wind:
Aussen-T/F 751 09-11-2008 11:50:02 10.3 C 8.81 g/m*3 10.3 C 0 km/h
752 09-11-2008 12:02:02 10.4 C 8.87 g/m*3 10.4 C 0 km/h
753 09-11-2008 12:14:02 10.7 C 9.04 g/m*3 10.7 C 0 km/h
754 09-11-2008 12:26:02 11 C 9.11 g/m*3 11 C 0 km/h
755 09-11-2008 12:38:02 10.8 C 8.99 g/m*3 10.8 C 0 km/h
756 09-11-2008 12:50:02 10.9 C 9.05 g/m*3 10.9 C 0 km/h
757 09-11-2008 13:02:02 10.6 C 8.69 g/m*3 10.6 C 0 km/h
758 09-11-2008 13:14:02 10.5 C 8.44 g/m*3 10.5 C 0 km/h
759 09-11-2008 13:26:02 10.6 C 8.39 g/m*3 10.6 C 0 km/h
760 09-11-2008 13:38:02 10.3 C 8.24 g/m*3 10.3 C 0 km/h
761 09-11-2008 13:50:02 9.8 C 7.61 g/m*3 9.8 C 0 km/h
762 09-11-2008 14:02:02 9.5 C 7.1 g/m*3 9.5 C 0 km/h
763 09-11-2008 14:14:02 9.7 C 7.19 g/m*3 9.7 C 0 km/h
764 09-11-2008 14:26:01 9.5 C 7.28 g/m*3 9.5 C 0 km/h
765 09-11-2008 14:38:02 9.6 C 7.51 g/m*3 9.6 C 0 km/h
766 09-11-2008 14:50:01 9.7 C 7.56 g/m*3 9.7 C 0 km/h
767 09-11-2008 15:02:01 9.8 C 7.24 g/m*3 9.8 C 0 km/h
768 09-11-2008 15:14:01 10.1 C 6.9 g/m*3 10.1 C 0 km/h
769 09-11-2008 15:26:02 10 C 6.95 g/m*3 10 C 0 km/h
770 09-11-2008 15:38:02 10.1 C 6.9 g/m*3 10.1 C 0 km/h
771 09-11-2008 15:50:01 9.9 C 7 g/m*3 9.9 C 0 km/h
772 09-11-2008 16:02:03 9.8 C 7.14 g/m*3 9.8 C 0 km/h
773 09-11-2008 16:14:03 9.6 C 7.15 g/m*3 9.6 C 0 km/h
774 09-11-2008 16:26:01 9.4 C 7.15 g/m*3 9.4 C 0 km/h
775 09-11-2008 16:38:02 9.2 C 7.23 g/m*3 9.2 C 0 km/h
Sensor: Nr:Datum:Temp:Abs-Feuchte:Windchill:Wind:
Aussen-T/F 776 09-11-2008 16:50:02 9.1 C 7.19 g/m*3 9.1 C 0 km/h
777 09-11-2008 17:02:02 9.1 C 7.19 g/m*3 9.1 C 0 km/h
778 09-11-2008 17:14:02 9 C 7.14 g/m*3 9 C 0 km/h
779 09-11-2008 17:26:02 8.8 C 7.22 g/m*3 8.8 C 0 km/h
780 09-11-2008 17:38:03 8.7 C 7.26 g/m*3 8.7 C 0 km/h
781 09-11-2008 17:50:02 8.7 C 7.26 g/m*3 8.7 C 0 km/h
782 09-11-2008 18:02:02 8.6 C 7.22 g/m*3 8.6 C 0 km/h
783 09-11-2008 18:14:02 8.5 C 7 g/m*3 8.5 C 0 km/h
784 09-11-2008 18:26:02 8.1 C 6.82 g/m*3 8.1 C 0 km/h
785 09-11-2008 18:38:02 7.9 C 6.82 g/m*3 7.9 C 0 km/h
786 09-11-2008 18:50:01 7.8 C 6.77 g/m*3 7.8 C 0 km/h
787 09-11-2008 19:02:02 7.6 C 6.69 g/m*3 7.6 C 0 km/h
788 09-11-2008 19:14:02 7.4 C 6.68 g/m*3 7.4 C 0 km/h
789 09-11-2008 19:26:03 7.4 C 6.76 g/m*3 7.4 C 0 km/h
790 09-11-2008 19:38:03 7.3 C 6.72 g/m*3 7.3 C 0 km/h
791 09-11-2008 19:50:02 7.4 C 6.84 g/m*3 7.4 C 0 km/h
792 09-11-2008 20:02:02 7.5 C 6.8 g/m*3 7.5 C 0 km/h
793 09-11-2008 20:14:02 7.4 C 6.76 g/m*3 7.4 C 0 km/h
794 09-11-2008 20:26:01 7.6 C 6.93 g/m*3 7.6 C 0 km/h
795 09-11-2008 20:38:02 7.4 C 6.76 g/m*3 7.4 C 0 km/h
796 09-11-2008 20:50:02 7.4 C 6.92 g/m*3 7.4 C 0 km/h
797 09-11-2008 21:02:01 7.6 C 7.01 g/m*3 7.6 C 0 km/h
798 09-11-2008 21:14:01 7.7 C 7.14 g/m*3 7.7 C 0 km/h
799 09-11-2008 21:26:02 7.9 C 7.23 g/m*3 7.9 C 0 km/h
800 09-11-2008 21:38:01 7.9 C 7.23 g/m*3 7.9 C 0 km/h
Sensor: Nr:Datum:Temp:Abs-Feuchte:Windchill:Wind:
Aussen-T/F 801 09-11-2008 21:50:02 7.9 C 7.31 g/m*3 7.9 C 0 km/h
802 09-11-2008 22:02:01 7.9 C 7.31 g/m*3 7.9 C 0 km/h
803 09-11-2008 22:14:01 7.8 C 7.35 g/m*3 7.8 C 0 km/h
804 09-11-2008 22:26:02 8 C 7.44 g/m*3 8 C 0 km/h
805 09-11-2008 22:38:01 8.3 C 7.67 g/m*3 8.3 C 0 km/h
806 09-11-2008 22:50:01 8.5 C 7.77 g/m*3 8.5 C 0 km/h
807 09-11-2008 23:02:01 8.5 C 7.77 g/m*3 8.5 C 0 km/h
808 09-11-2008 23:14:01 8.9 C 8.06 g/m*3 8.9 C 0 km/h
809 09-11-2008 23:26:01 9.3 C 8.27 g/m*3 9.3 C 0 km/h
810 09-11-2008 23:38:01 10.1 C 8.7 g/m*3 10.1 C 0 km/h
811 09-11-2008 23:50:01 11.4 C 9.34 g/m*3 11.4 C 0 km/h
812 10-11-2008 00:02:02 12 C 8.95 g/m*3 12 C 0 km/h
813 10-11-2008 00:14:02 12.1 C 8.69 g/m*3 12.1 C 0 km/h
814 10-11-2008 00:26:02 12.3 C 8.58 g/m*3 12.3 C 0 km/h
815 10-11-2008 00:38:02 12.3 C 8.58 g/m*3 12.3 C 0 km/h
816 10-11-2008 00:50:01 12.6 C 8.41 g/m*3 12.6 C 0 km/h
817 10-11-2008 01:02:02 12.9 C 8.34 g/m*3 12.9 C 0 km/h
818 10-11-2008 01:14:02 13 C 8.05 g/m*3 13 C 0 km/h
819 10-11-2008 01:26:01 13 C 7.94 g/m*3 13 C 0 km/h
820 10-11-2008 01:38:02 13 C 7.83 g/m*3 13 C 0 km/h
821 10-11-2008 01:50:02 13.1 C 7.53 g/m*3 13.1 C 0 km/h
822 10-11-2008 02:02:01 13 C 7.48 g/m*3 13 C 0 km/h
823 10-11-2008 02:14:01 13 C 7.48 g/m*3 13 C 0 km/h
824 10-11-2008 02:26:02 12.9 C 7.55 g/m*3 12.9 C 0 km/h
825 10-11-2008 02:38:01 12.5 C 7.81 g/m*3 12.5 C 0 km/h
Sensor: Nr:Datum:Temp:Abs-Feuchte:Windchill:Wind:
Aussen-T/F 826 10-11-2008 02:51:05 12 C 7.99 g/m*3 12 C 0 km/h
827 10-11-2008 03:03:05 11.8 C 8.21 g/m*3 11.8 C 0 km/h
828 10-11-2008 03:15:05 11.2 C 8.51 g/m*3 11.2 C 0 km/h
829 10-11-2008 03:27:05 11.1 C 8.66 g/m*3 11.1 C 0 km/h
830 10-11-2008 03:39:02 11.3 C 8.67 g/m*3 11.3 C 0 km/h
831 10-11-2008 03:51:02 11.6 C 8.52 g/m*3 11.6 C 0 km/h
832 10-11-2008 04:03:03 11.8 C 8.31 g/m*3 11.8 C 0 km/h
833 10-11-2008 04:15:02 11.9 C 8.26 g/m*3 11.9 C 0 km/h
834 10-11-2008 04:27:02 12 C 8.21 g/m*3 12 C 0 km/h
835 10-11-2008 04:39:03 12.3 C 8.25 g/m*3 12.3 C 0 km/h
836 10-11-2008 04:51:02 12.5 C 8.14 g/m*3 12.5 C 0 km/h
837 10-11-2008 05:03:02 12.5 C 8.14 g/m*3 12.5 C 0 km/h
838 10-11-2008 05:15:02 12.6 C 8.08 g/m*3 12.6 C 0 km/h
839 10-11-2008 05:27:02 12.8 C 8.06 g/m*3 12.8 C 0 km/h
840 10-11-2008 05:39:02 12.9 C 8 g/m*3 12.9 C 0 km/h
841 10-11-2008 05:51:01 13 C 7.83 g/m*3 13 C 0 km/h
842 10-11-2008 06:03:02 13 C 7.83 g/m*3 13 C 0 km/h
843 10-11-2008 06:15:02 13 C 7.83 g/m*3 13 C 0 km/h
844 10-11-2008 06:27:02 13 C 7.83 g/m*3 13 C 0 km/h
845 10-11-2008 06:39:02 13.1 C 7.76 g/m*3 13.1 C 0 km/h
846 10-11-2008 06:51:02 13 C 7.71 g/m*3 13 C 0 km/h
847 10-11-2008 07:03:02 13.1 C 7.76 g/m*3 13.1 C 0 km/h
848 10-11-2008 07:15:02 13.3 C 7.74 g/m*3 13.3 C 0 km/h
849 10-11-2008 07:27:02 13.2 C 7.69 g/m*3 13.2 C 0 km/h
850 10-11-2008 07:39:02 13.1 C 7.87 g/m*3 13.1 C 0 km/h
Sensor: Nr:Datum:Temp:Abs-Feuchte:Windchill:Wind:
Aussen-T/F 851 10-11-2008 07:51:02 12.8 C 8.18 g/m*3 12.8 C 0 km/h
852 10-11-2008 08:03:03 12.7 C 8.24 g/m*3 12.7 C 0 km/h
853 10-11-2008 08:15:02 13 C 8.28 g/m*3 13 C 0 km/h
854 10-11-2008 08:27:02 13 C 8.28 g/m*3 13 C 0 km/h
855 10-11-2008 08:39:03 12.8 C 8.4 g/m*3 12.8 C 0 km/h
856 10-11-2008 08:51:02 13 C 8.39 g/m*3 13 C 0 km/h
857 10-11-2008 09:03:01 13 C 8.28 g/m*3 13 C 0 km/h
858 10-11-2008 09:15:02 13 C 8.28 g/m*3 13 C 0 km/h
859 10-11-2008 09:27:03 13.2 C 8.27 g/m*3 13.2 C 0 km/h
860 10-11-2008 09:39:01 13.4 C 8.14 g/m*3 13.4 C 0 km/h
861 10-11-2008 09:51:02 13.5 C 8.07 g/m*3 13.5 C 0 km/h
862 10-11-2008 10:03:01 13.7 C 8.05 g/m*3 13.7 C 0 km/h
863 10-11-2008 10:15:02 13.7 C 7.93 g/m*3 13.7 C 0 km/h
864 10-11-2008 10:27:02 13.7 C 7.93 g/m*3 13.7 C 0 km/h
865 10-11-2008 10:39:01 13.8 C 7.98 g/m*3 13.8 C 0 km/h
866 10-11-2008 10:51:01 14 C 7.96 g/m*3 14 C 0 km/h
867 10-11-2008 11:03:01 14 C 8.08 g/m*3 14 C 0 km/h
868 10-11-2008 11:15:01 13.8 C 8.22 g/m*3 13.8 C 0 km/h
869 10-11-2008 11:27:01 14 C 8.2 g/m*3 14 C 0 km/h
870 10-11-2008 11:39:01 14.2 C 8.06 g/m*3 14.2 C 0 km/h
871 10-11-2008 11:51:01 14.4 C 8.03 g/m*3 14.4 C 0 km/h
872 10-11-2008 12:03:02 14.7 C 7.93 g/m*3 14.7 C 0 km/h
873 10-11-2008 12:15:02 15.2 C 7.92 g/m*3 15.2 C 0 km/h
874 10-11-2008 12:27:02 15 C 7.82 g/m*3 15 C 0 km/h
875 10-11-2008 12:39:02 15.1 C 7.87 g/m*3 15.1 C 0 km/h
Sensor: Nr:Datum:Temp:Abs-Feuchte:Windchill:Wind:
Aussen-T/F 876 10-11-2008 12:51:02 14.9 C 7.9 g/m*3 14.9 C 0 km/h
877 10-11-2008 13:03:01 14.9 C 7.77 g/m*3 14.9 C 0 km/h
878 10-11-2008 13:15:02 15 C 7.69 g/m*3 15 C 0 km/h
879 10-11-2008 13:27:02 14.7 C 7.81 g/m*3 14.7 C 0 km/h
880 10-11-2008 13:39:02 14.8 C 7.85 g/m*3 14.8 C 0 km/h
881 10-11-2008 13:51:02 14.9 C 7.77 g/m*3 14.9 C 0 km/h
882 10-11-2008 14:03:02 15.3 C 7.84 g/m*3 15.3 C 0 km/h
883 10-11-2008 14:15:02 15.3 C 7.57 g/m*3 15.3 C 0 km/h
884 10-11-2008 14:27:02 15.1 C 7.74 g/m*3 15.1 C 0 km/h
885 10-11-2008 14:39:02 15 C 7.82 g/m*3 15 C 0 km/h
886 10-11-2008 14:51:02 14.8 C 7.85 g/m*3 14.8 C 0 km/h
887 10-11-2008 15:03:01 14.8 C 7.73 g/m*3 14.8 C 0 km/h
888 10-11-2008 15:15:02 14.8 C 7.73 g/m*3 14.8 C 0 km/h
889 10-11-2008 15:27:03 14.8 C 7.73 g/m*3 14.8 C 0 km/h
890 10-11-2008 15:39:01 14.9 C 7.77 g/m*3 14.9 C 0 km/h
891 10-11-2008 15:51:03 14.8 C 7.73 g/m*3 14.8 C 0 km/h
892 10-11-2008 16:03:02 14.8 C 7.73 g/m*3 14.8 C 0 km/h
893 10-11-2008 16:15:03 14.8 C 7.73 g/m*3 14.8 C 0 km/h
894 10-11-2008 16:27:03 14.7 C 7.81 g/m*3 14.7 C 0 km/h
895 10-11-2008 16:39:02 14.6 C 7.76 g/m*3 14.6 C 0 km/h
896 10-11-2008 16:51:02 14.5 C 7.84 g/m*3 14.5 C 0 km/h
897 10-11-2008 17:03:02 14.5 C 7.71 g/m*3 14.5 C 0 km/h
898 10-11-2008 17:15:02 14.6 C 7.63 g/m*3 14.6 C 0 km/h
899 10-11-2008 17:27:02 14.7 C 7.55 g/m*3 14.7 C 0 km/h
900 10-11-2008 17:39:02 14.7 C 7.55 g/m*3 14.7 C 0 km/h
Sensor: Nr:Datum:Temp:Abs-Feuchte:Windchill:Wind:
Aussen-T/F 901 10-11-2008 17:51:01 14.9 C 7.65 g/m*3 14.9 C 0 km/h
902 10-11-2008 18:03:02 15.1 C 7.48 g/m*3 15.1 C 0 km/h
903 10-11-2008 18:15:01 15.2 C 7.4 g/m*3 15.2 C 0 km/h
904 10-11-2008 18:27:01 15.2 C 7.4 g/m*3 15.2 C 0 km/h
905 10-11-2008 18:39:02 14.9 C 7.39 g/m*3 14.9 C 0 km/h
906 10-11-2008 18:51:02 15.1 C 7.22 g/m*3 15.1 C 0 km/h
907 10-11-2008 19:03:03 15.1 C 7.1 g/m*3 15.1 C 0 km/h
908 10-11-2008 19:15:02 15.2 C 7.14 g/m*3 15.2 C 0 km/h
909 10-11-2008 19:27:02 15 C 7.05 g/m*3 15 C 0 km/h
910 10-11-2008 19:39:03 15.1 C 7.1 g/m*3 15.1 C 0 km/h
911 10-11-2008 19:51:02 15.2 C 7.14 g/m*3 15.2 C 0 km/h
912 10-11-2008 20:03:02 15.1 C 7.22 g/m*3 15.1 C 0 km/h
913 10-11-2008 20:15:02 15.3 C 7.31 g/m*3 15.3 C 0 km/h
914 10-11-2008 20:27:02 15.3 C 7.31 g/m*3 15.3 C 0 km/h
915 10-11-2008 20:39:02 15.3 C 7.31 g/m*3 15.3 C 0 km/h
916 10-11-2008 20:51:02 15.4 C 7.36 g/m*3 15.4 C 0 km/h
917 10-11-2008 21:03:02 15.5 C 7.53 g/m*3 15.5 C 0 km/h
918 10-11-2008 21:15:02 15.5 C 7.53 g/m*3 15.5 C 0 km/h
919 10-11-2008 21:27:02 15.6 C 7.58 g/m*3 15.6 C 0 km/h
920 10-11-2008 21:39:02 15.4 C 7.75 g/m*3 15.4 C 0 km/h
921 10-11-2008 21:51:01 15.2 C 8.05 g/m*3 15.2 C 0 km/h
922 10-11-2008 22:03:02 15.3 C 7.97 g/m*3 15.3 C 0 km/h
923 10-11-2008 22:15:02 15.2 C 8.05 g/m*3 15.2 C 0 km/h
924 10-11-2008 22:27:02 15.5 C 7.93 g/m*3 15.5 C 0 km/h
925 10-11-2008 22:39:02 15.7 C 7.63 g/m*3 15.7 C 0 km/h
Sensor: Nr:Datum:Temp:Abs-Feuchte:Windchill:Wind:
Aussen-T/F 926 10-11-2008 22:52:02 15.8 C 7.67 g/m*3 15.8 C 0 km/h
927 10-11-2008 23:04:02 15.8 C 7.54 g/m*3 15.8 C 0 km/h
928 10-11-2008 23:16:02 15.9 C 7.58 g/m*3 15.9 C 0 km/h
929 10-11-2008 23:28:02 15.8 C 7.54 g/m*3 15.8 C 0 km/h
930 10-11-2008 23:40:02 15.8 C 7.54 g/m*3 15.8 C 0 km/h
931 10-11-2008 23:52:02 16 C 7.49 g/m*3 16 C 0 km/h

Legende:
   Min
   Max


Maximal/Minimal-Werte vom 17.04.2019 - 19.05.2019

Sensor Min Max Avg
Temp
(Aussen-T/F)
2.2 °C
13-05-2019  06:50:00
26.6 °C
24-04-2019  17:05:00
11.51 °C

Die Daten stammen von einer Davis Vantage Pro 2 Wetter-Station und werden unter Linux mit der Software wview2wettercgi und aufbereitet. Alle Angaben erfolgen ohne Gewähr für ihre Vollständigkeit oder Richtigkeit.
Kontakt: Rainer Krienke krienke@uni-koblenz.de . Meine Webseiten an der Uni Koblenz oder privat.
Version: $Revision: 0.78 $